Regional Weather Roundup
Issued by NWS

Home | Current Version | Previous Version | Text Only | Print | Product List | Glossary Off
Versions: 1 2 3 4 5 6 7 8 9 10 11 12 13 14 15 16 17 18 19 20 21 22 23 24 25 26 27 28 29 30 31 32 33 34 35 36 37 38 39 40 41 42 43 44 45 46 47 48 49 50

493
ASUS43 KMPX 190301
RWRMN
WEATHER ROUNDUP FOR MINNESOTA
NATIONAL WEATHER SERVICE TWIN CITIES/CHANHASSEN MN
900 PM CST WED JAN 18 2017


NOTE: "FAIR" INDICATES FEW OR NO CLOUDS BELOW 12,000 FEET WITH NO
SIGNIFICANT WEATHER AND/OR OBSTRUCTIONS TO VISIBILITY. N/A MEANS
CURRENT SKY AND/OR WEATHER CONDITIONS ARE NOT AVAILABLE.

MNZ060>063-068>070-190400-
   Twin Cities Metro

CITY           SKY/WX    TMP DP  RH WIND       PRES   REMARKS
TWIN CITIES    CLOUDY    33  30  88 SE5       29.84F WCI  29
ST PAUL        CLOUDY    31  31 100 SE3       29.86F
CRYSTAL        CLOUDY    34  30  85 SE5       29.83S WCI  30
BLAINE         CLEAR     34  34 100 SE7       29.84S WCI  28
LAKEVILLE      CLEAR     32  32 100 S6        29.84F WCI  26
EDEN PRAIRIE   CLOUDY    36  33  89 S6        29.82F
SOUTH ST PAUL  CLOUDY    33  32  97 SE3       29.85F
LAKE ELMO      FAIR      32  32 100 S6        29.86S WCI  26
$$
MNZ001>005-007-008-013>017-022>024-027-028-190400-
   Northwest Minnesota

CITY           SKY/WX    TMP DP  RH WIND       PRES   REMARKS
BEMIDJI        CLOUDY    32  24  72 S6        29.72S WCI  26
HALLOCK        CLOUDY    27  23  86 S20       29.61F WCI  13
ROSEAU         CLOUDY    30  23  74 S10       29.65F WCI  21
WARROAD        CLOUDY    30  25  80 S6        29.67S WCI  24
THIEF RVR FALL CLOUDY    28  23  81 S10       29.68F WCI  19
CROOKSTON      CLOUDY    30  25  80 S17       29.68F WCI  18
FOSSTON        CLOUDY    28  21  74 S14       29.70S WCI  17
DETROIT LAKES  CLOUDY    32  27  80 SE7       29.73F WCI  26
MOORHEAD       CLOUDY    28  25  86 S12       29.73S WCI  18
PARK RAPIDS    CLOUDY    26  19  74 SE6       29.73F WCI  19
MAHNOMEN       FAIR      31  23  72 S7        29.70F WCI  24
$$
MNZ006-009>011-018-025>026-190400-
   North Central Minnesota

CITY           SKY/WX    TMP DP  RH WIND       PRES   REMARKS
BAUDETTE       CLOUDY    30  22  72 S6        29.67F WCI  24
FLAG ISLAND    CLOUDY    19  16  86 S9        29.65F WCI   9
INTL FALLS     CLOUDY    28  22  78 SE5       29.71F WCI  23
WASKISH        CLOUDY    32  27  80 CALM      29.71S
BIG FORK       CLOUDY    32  25  74 S5        29.74F WCI  27
LONGVILLE      CLOUDY    28  25  86 SE3       29.76S
GRAND RAPIDS   CLOUDY    30  24  78 S8        29.78F WCI  22
CRANE LAKE     CLOUDY    19  18  93 CALM      29.77S
ORR            CLOUDY    30  21  69 CALM      29.73R
COOK           CLOUDY    34  25  69 CALM      29.76S
WALKER         FAIR      32  24  70 S5        29.73F WCI  28
$$
MNZ012-019>021-037-190400-
   Northeast Minnesota

CITY           SKY/WX    TMP DP  RH WIND       PRES   REMARKS
DULUTH         CLOUDY    34  27  75 SW9       29.79S WCI  27
ELY            CLOUDY    30  25  80 SW5       29.76S WCI  25
HIBBING        CLOUDY    30  24  78 S3        29.77S
EVELETH        CLOUDY    30  25  81 CALM      29.79S
DULUTH HARBOR  CLOUDY    32  27  80 CALM      29.83R
TWO HARBORS    CLOUDY    36  28  75 W7        29.78S
SILVER BAY     CLOUDY    27  25  93 CALM      29.78S
GRAND MARAIS     N/A     29  26  89 NW3       29.80S
G MARAIS ARPRT CLOUDY    25  21  86 CALM      29.77S
$$
MNZ029>031-032-039>041-046>048-054>057-064-190400-
   West Central Minnesota

CITY           SKY/WX    TMP DP  RH WIND       PRES   REMARKS
FERGUS FALLS   CLOUDY    30  27  86 SE9       29.78F WCI  22
WHEATON        CLOUDY    34  30  86 SE9       29.75S WCI  26
MORRIS         CLOUDY    28  27  93 SE9       29.74S WCI  20
ALEXANDRIA     CLOUDY    28  26  92 SE7       29.76F WCI  21
ELBOW LAKE     FAIR      30  28  90 E10       29.74F FOG     WCI  21
WADENA         CLEAR     27  23  86 CALM      29.74F
GLENWOOD       CLOUDY    28  28 100 CALM      29.77S
APPLETON       CLOUDY    28  27  93 SE5       29.76R WCI  23
ORTONVILLE     CLOUDY    28  25  86 CALM      29.74S
MADISON        CLOUDY    28  28 100 SE6       29.75S WCI  22
WILLMAR        FAIR      28  28 100 SE7       29.79S FOG     WCI  21
$$
MNZ033>034-036-042>043-049>051-058-059-190400-
   Central Minnesota

CITY           SKY/WX    TMP DP  RH WIND       PRES   REMARKS
ST CLOUD       CLOUDY    29  28  96 SE7       29.80F WCI  22
SAUK CENTRE    FAIR      29  29  98 SE5       29.78R WCI  24
PAYNESVILLE    CLOUDY    31  31 100 SE8       29.79S FOG     WCI  24
AITKIN         CLOUDY    30  23  74 CALM      29.78R
PINE RIVER     CLOUDY    27  25  93 SE3       29.80F
BRAINERD       CLOUDY    29  26  89 S8        29.78S WCI  21
STAPLES        CLOUDY    28  25  86 CALM      29.76S
LONG PRAIRIE   FAIR      28  27  93 SE6       29.78S FOG     WCI  22
LITTLE FALLS   CLOUDY    30  28  93 SE5       29.79S WCI  25
LITCHFIELD     CLOUDY    34  34 100 S3        29.80S FOG
BUFFALO        CLOUDY    32  30  93 CALM      29.82F FOG
MAPLE LAKE     CLOUDY    30  30  98 SE3       29.82S FOG
HUTCHINSON     CLOUDY    32  32  99 SE3       29.81F FOG
$$
MNZ037-044-045-052-053-190400-
   East Central Minnesota

CITY           SKY/WX    TMP DP  RH WIND       PRES   REMARKS
PRINCETON      CLOUDY    32  28  86 SE3       29.82S
MORA           CLOUDY    28  25  86 CALM      29.83F
CAMBRIDGE      CLOUDY    36  27  69 S7        29.81S
RUSH CITY      CLOUDY    30  28  93 S6        29.83F WCI  24
MOOSE LAKE     CLOUDY    32  28  86 CALM      29.80R
HINCKLEY       FAIR      32  30  93 S3        29.82S
CLOQUET        CLOUDY    34  27  75 CALM      29.80S
MCGREGOR       CLOUDY    28  25  86 S5        29.80S WCI  23
$$
MNZ071>073-080-081-089-090-097-098-190400-
   Southwest Minnesota

CITY           SKY/WX    TMP DP  RH WIND       PRES   REMARKS
MONTEVIDEO     CLOUDY    28  28 100 S7        29.78S WCI  21
GRANITE FALLS  CLOUDY    33  32  96 SE8       29.78F WCI  27
CANBY          CLOUDY    42  37  82 SW17G23   29.73S
MARSHALL       CLOUDY    38  35  89 S17       29.75S
REDWOOD FALLS  CLOUDY    32  30  92 SE7       29.79S FOG     WCI  26
OLIVIA         CLOUDY    32  30  93 SE7       29.78F WCI  26
PIPESTONE      CLEAR     39  36  87 SW16      29.75F
WINDOM           N/A     39  36  87 S15       29.80S
WORTHINGTON    CLEAR     38  35  89 S15       29.80F
JACKSON        CLEAR     36  32  87 S13       29.82F
TRACY          CLEAR     40  37  89 SW15      29.76F
SLAYTON        CLEAR     38  36  90 S21       29.77F
$$
MNZ065>067-074>077-082>085-091>093-190400-
   South Central Minnesota

CITY           SKY/WX    TMP DP  RH WIND       PRES   REMARKS
MANKATO        CLEAR     37  34  89 S9        29.84S
NEW ULM        CLEAR     34  34 100 S8        29.81S WCI  27
ST JAMES       CLEAR     36  36 100 S10       29.83S
FAIRMONT       CLEAR     36  34  92 S16       29.84F
GLENCOE        CLOUDY    37  36  99 S7        29.81S
FARIBAULT      CLEAR     34  32  93 S6        29.86S WCI  29
OWATONNA         N/A     36  32  87 S14       29.86S
WASECA         CLEAR     36  32  87 S14       29.86F
ALBERT LEA     CLEAR     36  34  93 S9        29.87F
$$
MNZ078>079-086>088-094>096-190400-
   Southeast Minnesota

CITY           SKY/WX    TMP DP  RH WIND       PRES   REMARKS
ROCHESTER      CLEAR     32  31  96 S15       29.88F WCI  22
RED WING       CLOUDY    34  28  80 SE3       29.88S
STANTON        CLOUDY    37  32  85 S10G16    29.84S
DODGE CENTER   CLEAR     34  32  93 S15       29.86F WCI  24
WINONA         CLOUDY    34  32  93 CALM      29.93F
AUSTIN         CLEAR     32  30  93 S9        29.89S FOG     WCI  24
PRESTON        FOG       32  32  99 S17       29.90F VSB 1   WCI  21
$$
ABBREVIATIONS USED IN REMARKS
   TC - TEMPERATURES IN CELSIUS
  WCI - WIND CHILL INDEX
   HX - HEAT INDEX
  VSB - VISIBILITY
$$




USA.gov is the U.S. government's official web portal to all federal, state and local government web resources and services.